Regional Weather Roundup
Issued by NWS

Home | Current Version | Previous Version | Graphics & Text | Print | Product List | Glossary On
Versions: 1 2 3 4 5 6 7 8 9 10 11 12 13 14 15 16 17 18 19 20 21 22 23 24 25 26 27 28 29 30 31 32 33 34 35 36 37 38 39 40 41 42 43 44 45 46 47 48 49 50
000
ASUS43 KLOT 230058
RWRIL

ILLINOIS REGIONAL WEATHER ROUNDUP
NATIONAL WEATHER SERVICE CHICAGO/ROMEOVILLE IL
800 PM CDT FRI AUG 22 2014

NOTE: "FAIR" INDICATES FEW OR NO CLOUDS BELOW 12,000 FEET WITH NO
SIGNIFICANT WEATHER AND/OR OBSTRUCTIONS TO VISIBILITY.

* THESE STATIONS ARE NOT UNDER NWS QUALITY CONTROL. THEY ALSO MAY NOT
  REPORT WEATHER SUCH AS PRECIPITATION OR FOG.

ILZ001-002-007-009-015-016-024-230200-
NORTHWEST ILLINOIS

CITY           SKY/WX    TMP DP  RH WIND       PRES   REMARKS
MOLINE         PTCLDY    81  75  82 SW3       29.94R HX  87
$$

ILZ003-004-008-010-011-017-018-230200-
NORTH CENTRAL ILLINOIS

CITY           SKY/WX    TMP DP  RH WIND       PRES   REMARKS
ROCKFORD       NOT AVBL
$$

ILZ005-006-012>014-019>023-230200-
NORTHEAST ILLINOIS

CITY           SKY/WX    TMP DP  RH WIND       PRES   REMARKS
CHICAGO-OHARE  MOCLDY    82  71  69 N5        29.95R HX  86
CHICAGO-MIDWAY PTCLDY    82  74  76 W5        29.95R HX  88
AURORA         PTCLDY    78  73  84 S3        29.95F HX  81
WAUKEGAN       MOCLDY    73  72  96 E6        29.96R FOG
DUPAGE AIRPORT MOCLDY    80  74  81 CALM      29.95S HX  85
WHEELING       PTCLDY    79  73  82 E5        29.96S HX  82
NORTHERLY ISL    N/A     76  72  87 N3          N/A
$$

LMZ740>746-230200-
SOUTHERN LAKE MICHIGAN

STATION/POSITION SKY/WX   TEMP    WIND        PRES    VSBY  WAVE
                          AIR SEA DIR/SP/G                  HT/PER
                          (F)     (DEG/KT/KT) (MB)    (MI)  (FT/S)
SOUTHERN BUOY              72 71  130/  2/  4 1014.5R         0
WAUKEGAN HARBOR            74      60/  5/  5   N/A
HARRISON CRIB              76     110/  6/  7   N/A
BURNHAM HARBOR             76      CALM  /  4   N/A
CALUMET HARBOR             82     230/  5/  7 1013.2R
MICHIGAN CITY              78      20/  5/  5   N/A
MICHIGAN CITY 6N           76 75  100/  2/  4   N/A           0
ST. JOSEPH                 75 72   30/  4/  4   N/A           0
$$

ILZ025>027-034>036-040-047-049-050-058-095>099-230200-
WEST-CENTRAL ILLINOIS

CITY           SKY/WX    TMP DP  RH WIND       PRES   REMARKS
$$

ILZ028>032-037-038-041>044-048-051>054-059>061-230200-
CENTRAL ILLINOIS

CITY           SKY/WX    TMP DP  RH WIND       PRES   REMARKS
PEORIA         NOT AVBL
SPRINGFIELD    PTCLDY    83  78  85 CALM      29.94S HX  93
TAYLORVILLE    NOT AVBL
$$

ILZ033-039-045-046-055>057-062-063-230200-
EAST-CENTRAL ILLINOIS

CITY           SKY/WX    TMP DP  RH WIND       PRES   REMARKS
MATTOON        PTCLDY    80  77  90 S3        29.95F HX  87
$$

ILZ079-100>102-230200-
SOUTHWEST ILLINOIS

CITY           SKY/WX    TMP DP  RH WIND       PRES   REMARKS
ALTON          MOCLDY    82  81  94 E3        29.93S HX  95
$$

ILZ064>066-069>071-074>076-080>082-084>086-088>090-092>094-230200-
SOUTH-CENTRAL ILLINOIS

CITY           SKY/WX    TMP DP  RH WIND       PRES   REMARKS
CARBONDALE     CLOUDY    84  76  76 S7        29.94R HX  93
$$

ILZ067-068-072-073-078-083-087-091-230200-
SOUTHEAST ILLINOIS

CITY           SKY/WX    TMP DP  RH WIND       PRES   REMARKS
$$

ABBREVIATIONS USED IN REMARKS
   TC - TEMPERATURE IN CELSIUS
  WCI - WIND CHILL INDEX
   HX - HEAT INDEX
  VSB - VISIBILITY
$$




USA.gov is the U.S. government's official web portal to all federal, state and local government web resources and services.